�������l�o���
Date,Time,MP-1(��Sv/h),MP-2(��Sv/h),MP-3(��Sv/h),MP-4(��Sv/h),MP-5(��Sv/h),MP-6(��Sv/h),MP-7(��Sv/h),MP-8(��Sv/h),����,����(m/s),���J
2018/08/28,00:00,0.843,1.229,0.878,1.571,1.143,0.471,0.836,0.790,�k��,1.9,��
2018/08/28,00:10,0.843,1.226,0.877,1.571,1.138,0.472,0.834,0.789,���k��,2.0,��
2018/08/28,00:20,0.843,1.228,0.878,1.569,1.138,0.472,0.835,0.792,�k,1.7,��
2018/08/28,00:30,0.843,1.228,0.876,1.568,1.139,0.472,0.838,0.789,�k��,1.2,��
2018/08/28,00:40,0.843,1.228,0.880,1.569,1.141,0.472,0.835,0.791,�k�k��,1.1,��
2018/08/28,00:50,0.845,1.227,0.878,1.569,1.141,0.474,0.836,0.790,��,0.6,�L
2018/08/28,01:00,0.842,1.228,0.877,1.571,1.140,0.472,0.836,0.790,�k��,2.6,�L
2018/08/28,01:10,0.844,1.227,0.879,1.570,1.141,0.473,0.834,0.790,��,1.7,��
2018/08/28,01:20,0.844,1.229,0.878,1.570,1.141,0.472,0.835,0.790,���쐼,1.1,��
2018/08/28,01:30,0.842,1.227,0.879,1.569,1.141,0.474,0.836,0.790,��,1.1,��
2018/08/28,01:40,0.841,1.226,0.877,1.571,1.139,0.472,0.837,0.789,��쐼,1.1,��
2018/08/28,01:50,0.845,1.224,0.878,1.570,1.142,0.472,0.833,0.789,��,2.6,��
2018/08/28,02:00,0.841,1.226,0.879,1.567,1.142,0.471,0.835,0.790,��,3.7,��
2018/08/28,02:10,0.843,1.229,0.881,1.568,1.140,0.472,0.835,0.791,��,2.3,��
2018/08/28,02:20,0.842,1.227,0.879,1.570,1.140,0.473,0.835,0.789,��쐼,4.2,��
2018/08/28,02:30,0.845,1.227,0.878,1.569,1.141,0.471,0.835,0.789,��쐼,4.8,��
2018/08/28,02:40,0.842,1.230,0.881,1.569,1.139,0.473,0.837,0.791,��쐼,4.5,��
2018/08/28,02:50,0.845,1.227,0.879,1.570,1.141,0.471,0.836,0.790,��쐼,4.7,��
2018/08/28,03:00,0.843,1.229,0.880,1.568,1.141,0.471,0.837,0.791,��쐼,5.1,�L
2018/08/28,03:10,0.840,1.228,0.877,1.570,1.141,0.472,0.836,0.790,��쐼,4.5,�L
2018/08/28,03:20,0.841,1.228,0.878,1.568,1.142,0.473,0.837,0.790,��,6.2,�L
2018/08/28,03:30,0.841,1.226,0.878,1.570,1.140,0.471,0.834,0.790,��,6.3,�L
2018/08/28,03:40,0.842,1.226,0.877,1.571,1.141,0.471,0.829,0.787,��,7.0,�L
2018/08/28,03:50,0.840,1.222,0.877,1.568,1.137,0.469,0.826,0.781,��,6.0,�L
2018/08/28,04:00,0.839,1.222,0.877,1.571,1.134,0.469,0.827,0.782,��,5.5,�L
2018/08/28,04:10,0.838,1.218,0.878,1.567,1.133,0.468,0.826,0.782,��쐼,6.2,�L
2018/08/28,04:20,0.840,1.222,0.876,1.565,1.134,0.471,0.830,0.783,��,5.6,�L
2018/08/28,04:30,0.839,1.221,0.875,1.567,1.133,0.470,0.826,0.781,��,5.3,�L
2018/08/28,04:40,0.839,1.219,0.876,1.566,1.132,0.468,0.825,0.781,��,5.2,�L
2018/08/28,04:50,0.836,1.218,0.875,1.566,1.133,0.469,0.826,0.780,��,5.1,�L
2018/08/28,05:00,0.835,1.216,0.876,1.567,1.133,0.468,0.826,0.781,��,6.2,�L
2018/08/28,05:10,0.837,1.216,0.875,1.565,1.133,0.470,0.828,0.783,��,6.4,�L
2018/08/28,05:20,0.838,1.217,0.876,1.565,1.132,0.470,0.826,0.781,��,5.6,�L
2018/08/28,05:30,0.838,1.217,0.876,1.564,1.131,0.468,0.828,0.781,��,5.0,�L
2018/08/28,05:40,0.836,1.216,0.875,1.565,1.133,0.469,0.828,0.780,��,5.7,��
2018/08/28,05:50,0.836,1.217,0.875,1.564,1.132,0.469,0.826,0.783,��쐼,5.1,�L
2018/08/28,06:00,0.832,1.208,0.866,1.555,1.126,0.467,0.825,0.782,��쓌,4.4,�L
2018/08/28,06:10,0.827,1.195,0.866,1.542,1.112,0.469,0.824,0.778,��,4.4,�L
2018/08/28,06:20,0.831,1.196,0.867,1.544,1.116,0.468,0.824,0.780,��,4.1,�L
2018/08/28,06:30,0.830,1.200,0.866,1.546,1.114,0.469,0.824,0.779,��,4.1,��
2018/08/28,06:40,0.830,1.196,0.866,1.545,1.113,0.468,0.823,0.778,��,4.0,�L
2018/08/28,06:50,0.830,1.194,0.866,1.544,1.112,0.467,0.827,0.779,��,5.7,�L
2018/08/28,07:00,0.823,1.177,0.861,1.535,1.108,0.469,0.824,0.778,��,2.0,�L
2018/08/28,07:10,0.821,1.173,0.858,1.528,1.105,0.468,0.821,0.777,��쐼,2.9,�L
2018/08/28,07:20,0.823,1.177,0.859,1.529,1.103,0.467,0.822,0.776,�쐼,1.7,�L
2018/08/28,07:30,0.825,1.180,0.861,1.528,1.106,0.466,0.821,0.776,���쐼,0.6,�L
2018/08/28,07:40,0.824,1.180,0.857,1.524,1.101,0.466,0.820,0.776,���k��,1.2,�L
2018/08/28,07:50,0.825,1.179,0.852,1.523,1.100,0.465,0.819,0.776,�k��,3.9,�L
2018/08/28,08:00,0.819,1.175,0.852,1.516,1.095,0.465,0.817,0.775,��,2.3,�L
2018/08/28,08:10,0.822,1.173,0.854,1.513,1.094,0.465,0.817,0.775,���k��,0.9,�L
2018/08/28,08:20,0.822,1.176,0.855,1.516,1.097,0.465,0.818,0.774,�k��,1.2,�L
2018/08/28,08:30,0.822,1.177,0.852,1.516,1.095,0.464,0.816,0.774,�k�k��,3.1,�L
2018/08/28,08:40,0.821,1.177,0.851,1.516,1.093,0.464,0.819,0.772,�k,2.3,�L
2018/08/28,08:50,0.823,1.178,0.849,1.512,1.097,0.464,0.817,0.772,�k,2.0,�L
2018/08/28,09:00,0.823,1.178,0.850,1.514,1.095,0.466,0.817,0.773,�k�k��,1.4,�L
2018/08/28,09:10,0.823,1.176,0.851,1.517,1.098,0.465,0.820,0.773,�k,2.0,�L
2018/08/28,09:20,0.821,1.179,0.852,1.518,1.095,0.464,0.818,0.775,�k,2.0,�L
2018/08/28,09:30,0.821,1.177,0.851,1.520,1.097,0.465,0.819,0.773,�k��,1.5,�L
2018/08/28,09:40,0.821,1.179,0.854,1.518,1.099,0.466,0.819,0.774,�k��,1.5,��
2018/08/28,09:50,0.821,1.182,0.854,1.520,1.097,0.465,0.819,0.773,�k��,1.1,��
2018/08/28,10:00,0.820,1.183,0.854,1.522,1.101,0.464,0.819,0.774,�k�k��,0.9,��
2018/08/28,10:10,0.821,1.182,0.855,1.521,1.097,0.463,0.821,0.776,�k�k��,0.9,��
2018/08/28,10:20,0.821,1.183,0.852,1.525,1.100,0.465,0.819,0.775,�k�k��,1.7,��
2018/08/28,10:30,0.822,1.185,0.851,1.524,1.100,0.464,0.819,0.775,�k��,2.3,��
2018/08/28,10:40,0.824,1.189,0.852,1.524,1.103,0.464,0.822,0.774,�k��,2.3,��
2018/08/28,10:50,0.821,1.188,0.852,1.522,1.101,0.465,0.820,0.776,��,2.3,��
2018/08/28,11:00,0.823,1.186,0.852,1.523,1.103,0.464,0.820,0.776,��,2.3,��
2018/08/28,11:10,0.823,1.190,0.853,1.523,1.104,0.467,0.824,0.775,��,2.3,��
2018/08/28,11:20,0.824,1.192,0.854,1.523,1.106,0.465,0.822,0.777,��,2.3,��
2018/08/28,11:30,0.823,1.193,0.854,1.522,1.102,0.466,0.823,0.777,��,2.5,��
2018/08/28,11:40,0.823,1.189,0.851,1.521,1.102,0.464,0.822,0.775,��,2.8,��
2018/08/28,11:50,0.824,1.193,0.855,1.522,1.108,0.465,0.823,0.777,���k��,2.6,��
2018/08/28,12:00,0.825,1.194,0.855,1.523,1.107,0.465,0.821,0.776,�k��,2.6,��
2018/08/28,12:10,0.824,1.193,0.855,1.526,1.108,0.466,0.823,0.777,�k��,2.2,�L
2018/08/28,12:20,0.825,1.196,0.854,1.526,1.107,0.465,0.822,0.778,�k��,2.3,�L
2018/08/28,12:30,0.824,1.193,0.856,1.525,1.107,0.464,0.823,0.778,�k��,1.7,�L
2018/08/28,12:40,0.825,1.196,0.854,1.524,1.107,0.467,0.823,0.779,�k�k��,1.9,�L
2018/08/28,12:50,0.824,1.194,0.854,1.523,1.107,0.466,0.823,0.778,�k��,1.1,�L
2018/08/28,13:00,0.825,1.193,0.855,1.527,1.105,0.466,0.824,0.777,�k�k��,1.2,�L
2018/08/28,13:10,0.825,1.194,0.855,1.529,1.107,0.467,0.823,0.776,�k�k��,1.5,�L
2018/08/28,13:20,0.824,1.193,0.855,1.530,1.110,0.466,0.824,0.777,��,1.4,�L
2018/08/28,13:30,0.824,1.197,0.857,1.529,1.107,0.467,0.825,0.776,�쓌,1.2,�L
2018/08/28,13:40,0.824,1.196,0.859,1.529,1.109,0.468,0.822,0.777,�쓌,1.4,�L
2018/08/28,13:50,0.825,1.195,0.857,1.530,1.111,0.464,0.821,0.776,�쓌,0.8,��
2018/08/28,14:00,0.824,1.198,0.859,1.528,1.109,0.466,0.822,0.777,�k��,0.8,��
2018/08/28,14:10,0.826,1.197,0.856,1.528,1.110,0.466,0.822,0.776,�k�k��,0.8,�L
2018/08/28,14:20,0.825,1.196,0.859,1.532,1.108,0.467,0.820,0.776,�k�k��,0.6,�L
2018/08/28,14:30,0.826,1.196,0.858,1.531,1.108,0.466,0.823,0.777,�k��,1.1,�L
2018/08/28,14:40,0.827,1.198,0.859,1.531,1.108,0.466,0.822,0.776,�k�k��,1.5,�L
2018/08/28,14:50,0.826,1.198,0.858,1.529,1.106,0.466,0.822,0.777,�k,1.5,��
2018/08/28,15:00,0.824,1.197,0.858,1.528,1.109,0.465,0.822,0.776,�k�k��,0.9,�L
2018/08/28,15:10,0.826,1.198,0.859,1.528,1.107,0.466,0.821,0.776,�k��,1.5,��
2018/08/28,15:20,0.825,1.198,0.858,1.530,1.106,0.469,0.824,0.775,�k�k��,2.0,��
2018/08/28,15:30,0.825,1.199,0.856,1.532,1.106,0.467,0.823,0.777,�k�k��,1.1,�L
2018/08/28,15:40,0.825,1.198,0.859,1.530,1.106,0.465,0.823,0.777,�k��,1.7,�L
2018/08/28,15:50,0.824,1.199,0.859,1.531,1.106,0.466,0.823,0.779,�k��,0.9,�L
2018/08/28,16:00,0.824,1.199,0.859,1.531,1.105,0.467,0.822,0.777,�k��,0.9,�L
2018/08/28,16:10,0.823,1.197,0.858,1.529,1.106,0.467,0.822,0.778,���k��,1.5,�L
2018/08/28,16:20,0.825,1.202,0.859,1.529,1.106,0.466,0.823,0.776,���쓌,1.7,�L
2018/08/28,16:30,0.824,1.202,0.859,1.531,1.106,0.465,0.822,0.776,��,1.1,��
2018/08/28,16:40,0.825,1.203,0.856,1.529,1.108,0.466,0.823,0.777,���k��,0.6,�L
2018/08/28,16:50,0.826,1.201,0.860,1.527,1.105,0.465,0.823,0.777,�k��,1.7,�L
2018/08/28,17:00,0.826,1.199,0.858,1.530,1.104,0.466,0.822,0.777,�k�k��,2.5,�L
2018/08/28,17:10,0.826,1.201,0.859,1.531,1.105,0.466,0.822,0.779,�k�k��,4.0,�L
2018/08/28,17:20,0.827,1.204,0.859,1.530,1.105,0.467,0.822,0.780,�k�k��,5.0,�L
2018/08/28,17:30,0.829,1.201,0.860,1.532,1.105,0.468,0.823,0.779,�k�k��,5.4,�L
2018/08/28,17:40,0.828,1.201,0.859,1.532,1.105,0.467,0.823,0.779,�k�k��,5.8,�L
2018/08/28,17:50,0.826,1.203,0.859,1.531,1.105,0.467,0.823,0.777,�k�k��,5.5,�L
2018/08/28,18:00,0.825,1.200,0.857,1.531,1.106,0.466,0.823,0.776,�k�k��,5.5,�L
2018/08/28,18:10,0.824,1.199,0.859,1.532,1.102,0.467,0.821,0.777,�k�k��,4.9,�L
2018/08/28,18:20,0.826,1.192,0.857,1.527,1.101,0.469,0.820,0.775,�k,4.8,�L
2018/08/28,18:30,0.822,1.189,0.856,1.524,1.100,0.468,0.819,0.776,�k,4.3,�L
2018/08/28,18:40,0.821,1.190,0.855,1.526,1.101,0.467,0.820,0.775,�k,4.3,�L
2018/08/28,18:50,0.821,1.190,0.853,1.523,1.100,0.466,0.819,0.775,�k�k��,4.8,�L
2018/08/28,19:00,0.821,1.189,0.854,1.522,1.100,0.465,0.819,0.776,�k�k��,4.6,�L
2018/08/28,19:10,0.820,1.187,0.852,1.523,1.097,0.466,0.822,0.777,�k,5.0,�L
2018/08/28,19:20,0.819,1.185,0.852,1.520,1.096,0.465,0.819,0.776,�k,5.3,�L
2018/08/28,19:30,0.818,1.184,0.854,1.518,1.098,0.466,0.818,0.775,�k,5.6,�L
2018/08/28,19:40,0.817,1.181,0.851,1.515,1.094,0.466,0.818,0.775,�k,5.8,�L
2018/08/28,19:50,0.814,1.173,0.848,1.504,1.089,0.466,0.815,0.772,�k,5.1,�L
2018/08/28,20:00,0.814,1.171,0.848,1.504,1.088,0.465,0.815,0.773,�k�k��,5.2,�L
2018/08/28,20:10,0.815,1.170,0.847,1.502,1.087,0.466,0.812,0.771,�k�k��,4.7,�L
2018/08/28,20:20,0.810,1.165,0.845,1.495,1.081,0.465,0.812,0.768,�k,4.8,�L
2018/08/28,20:30,0.810,1.166,0.847,1.498,1.082,0.465,0.814,0.768,�k,4.7,�L
2018/08/28,20:40,0.813,1.162,0.846,1.493,1.077,0.465,0.808,0.768,�k��,0.9,�L
2018/08/28,20:50,0.811,1.152,0.840,1.482,1.072,0.465,0.808,0.766,�k�k��,5.2,�L
2018/08/28,21:00,0.807,1.148,0.840,1.486,1.070,0.462,0.808,0.764,�k,4.1,�L
2018/08/28,21:10,0.810,1.154,0.841,1.490,1.076,0.463,0.809,0.764,�k�k��,4.0,�L
2018/08/28,21:20,0.816,1.162,0.844,1.487,1.076,0.463,0.810,0.766,�k��,5.1,�L
2018/08/28,21:30,0.815,1.164,0.844,1.495,1.081,0.464,0.809,0.768,�k��,4.7,�L
2018/08/28,21:40,0.816,1.165,0.843,1.494,1.080,0.465,0.809,0.767,�k��,3.8,��
2018/08/28,21:50,0.813,1.167,0.843,1.497,1.078,0.463,0.811,0.769,�k��,3.3,�L
2018/08/28,22:00,0.815,1.167,0.842,1.497,1.079,0.462,0.812,0.768,�k��,4.8,�L
2018/08/28,22:10,0.815,1.167,0.841,1.499,1.080,0.463,0.810,0.767,���k��,3.2,�L
2018/08/28,22:20,0.814,1.170,0.842,1.499,1.081,0.463,0.812,0.769,���k��,3.3,��
2018/08/28,22:30,0.811,1.169,0.841,1.500,1.078,0.462,0.810,0.768,���k��,3.1,��
2018/08/28,22:40,0.811,1.169,0.841,1.501,1.079,0.462,0.811,0.768,���k��,2.8,��
2018/08/28,22:50,0.812,1.169,0.841,1.501,1.078,0.462,0.810,0.768,��,3.3,�L
2018/08/28,23:00,0.811,1.170,0.842,1.499,1.078,0.463,0.812,0.769,��,2.6,�L
2018/08/28,23:10,0.810,1.169,0.841,1.499,1.080,0.464,0.809,0.766,���k��,1.4,�L
2018/08/28,23:20,0.807,1.161,0.837,1.492,1.074,0.464,0.810,0.766,��,3.5,�L
2018/08/28,23:30,0.807,1.160,0.840,1.486,1.072,0.463,0.809,0.769,�k��,2.9,�L
2018/08/28,23:40,0.811,1.163,0.839,1.490,1.073,0.464,0.811,0.768,���k��,3.8,�L
2018/08/28,23:50,0.812,1.163,0.839,1.490,1.075,0.463,0.810,0.768,���k��,3.5,�L
